^^
Saratoga-Weather Station Historical Data
Daily Summary for April 23, 2021 Units:  Metric    English   Both
Daily Weekly Monthly Yearly Custom
  High: Low: Average:
Temperature: 24.3 °C 15.2 °C 18.8 °C
Dew Point: 16.3 °C 13.9 °C 15 °C
Humidity: 94% 56% 80%
Wind Speed: 11.1km/h 0km/h 2.5km/h
Wind Gust: 17.7km/h - -
Wind- - SSW
Pressure: 1018.0 hPa 1015.2 hPa -
Precipitation: 0.0 mm    
Historical Graphs
 
 
Tabular Data for April 23, 2021
Time Temperature Dew Point Pressure Wind Wind Speed Wind Gust Humidity Rainfall Rate (Hourly) solar
00:02 16.1 °C 15 °C 1015.2 hPa West 1.4 km/h 4.8 km/h 93% 0.0 mm 0 W/m2
00:07 16 °C 14.9 °C 1015.2 hPa NW 3.2 km/h 3.2 km/h 93% 0.0 mm 0 W/m2
00:12 16.1 °C 15 °C 1015.2 hPa Calm   3.2 km/h 93% 0.0 mm 0 W/m2
00:17 16.1 °C 15 °C 1015.2 hPa NNW 3.2 km/h 4.8 km/h 93% 0.0 mm 0 W/m2
00:22 16.1 °C 14.8 °C 1015.2 hPa Calm   1.6 km/h 92% 0.0 mm 0 W/m2
00:27 16.1 °C 14.8 °C 1015.2 hPa SE 1.4 km/h 8 km/h 92% 0.0 mm 0 W/m2
00:32 16.1 °C 14.8 °C 1015.6 hPa Calm   4.8 km/h 92% 0.0 mm 0 W/m2
00:37 16.1 °C 14.8 °C 1015.6 hPa Calm   8 km/h 92% 0.0 mm 0 W/m2
00:42 16.1 °C 14.8 °C 1015.6 hPa Calm   1.6 km/h 92% 0.0 mm 0 W/m2
00:47 16.1 °C 14.8 °C 1015.6 hPa ENE 1.4 km/h 1.6 km/h 92% 0.0 mm 0 W/m2
00:52 16 °C 14.9 °C 1015.6 hPa NE 3.2 km/h 3.2 km/h 93% 0.0 mm 0 W/m2
00:57 15.9 °C 14.6 °C 1015.6 hPa Calm     92% 0.0 mm 0 W/m2
01:02 15.9 °C 14.6 °C 1015.6 hPa Calm     92% 0.0 mm 0 W/m2
01:07 15.9 °C 14.6 °C 1015.6 hPa Calm   1.6 km/h 92% 0.0 mm 0 W/m2
01:12 15.9 °C 14.8 °C 1015.6 hPa Calm   1.6 km/h 93% 0.0 mm 0 W/m2
01:17 15.9 °C 14.8 °C 1015.6 hPa Calm   3.2 km/h 93% 0.0 mm 0 W/m2
01:22 15.9 °C 14.8 °C 1015.6 hPa Calm   1.6 km/h 93% 0.0 mm 0 W/m2
01:27 15.8 °C 14.7 °C 1015.6 hPa Calm     93% 0.0 mm 0 W/m2
01:32 15.8 °C 14.7 °C 1015.6 hPa Calm     93% 0.0 mm 0 W/m2
01:37 15.8 °C 14.7 °C 1015.6 hPa NNW 1.4 km/h 1.6 km/h 93% 0.0 mm 0 W/m2
01:42 15.8 °C 14.7 °C 1015.6 hPa NNE 1.4 km/h 1.6 km/h 93% 0.0 mm 0 W/m2
01:47 15.8 °C 14.7 °C 1015.6 hPa Calm   9.7 km/h 93% 0.0 mm 0 W/m2
01:52 15.8 °C 14.7 °C 1015.6 hPa Calm   1.6 km/h 93% 0.0 mm 0 W/m2
01:57 15.8 °C 14.7 °C 1015.6 hPa WNW 3.2 km/h 6.4 km/h 93% 0.0 mm 0 W/m2
02:02 15.8 °C 14.7 °C 1015.6 hPa West 1.4 km/h 3.2 km/h 93% 0.0 mm 0 W/m2
02:07 15.7 °C 14.6 °C 1015.6 hPa West 3.2 km/h 3.2 km/h 93% 0.0 mm 0 W/m2
02:12 15.7 °C 14.6 °C 1015.9 hPa Calm   3.2 km/h 93% 0.0 mm 0 W/m2
02:17 15.7 °C 14.6 °C 1015.9 hPa Calm   3.2 km/h 93% 0.0 mm 0 W/m2
02:22 15.7 °C 14.6 °C 1015.9 hPa Calm   3.2 km/h 93% 0.0 mm 0 W/m2
02:27 15.7 °C 14.6 °C 1015.9 hPa NNW 1.4 km/h 3.2 km/h 93% 0.0 mm 0 W/m2
02:32 15.7 °C 14.6 °C 1015.9 hPa NW 1.4 km/h 4.8 km/h 93% 0.0 mm 0 W/m2
02:37 15.7 °C 14.6 °C 1015.9 hPa ESE 1.4 km/h 8 km/h 93% 0.0 mm 0 W/m2
02:42 15.7 °C 14.6 °C 1015.9 hPa Calm   3.2 km/h 93% 0.0 mm 0 W/m2
02:47 15.7 °C 14.6 °C 1015.9 hPa Calm   8 km/h 93% 0.0 mm 0 W/m2
02:52 15.7 °C 14.6 °C 1015.9 hPa Calm   1.6 km/h 93% 0.0 mm 0 W/m2
02:57 15.6 °C 14.5 °C 1015.9 hPa Calm   1.6 km/h 93% 0.0 mm 0 W/m2
03:02 15.6 °C 14.5 °C 1015.9 hPa Calm     93% 0.0 mm 0 W/m2
03:07 15.6 °C 14.5 °C 1015.9 hPa Calm   1.6 km/h 93% 0.0 mm 0 W/m2
03:12 15.6 °C 14.5 °C 1015.9 hPa East 3.2 km/h 3.2 km/h 93% 0.0 mm 0 W/m2
03:17 15.6 °C 14.5 °C 1015.9 hPa East 1.4 km/h 3.2 km/h 93% 0.0 mm 0 W/m2
03:22 15.5 °C 14.4 °C 1015.9 hPa Calm   3.2 km/h 93% 0.0 mm 0 W/m2
03:27 15.5 °C 14.4 °C 1016.3 hPa Calm     93% 0.0 mm 0 W/m2
03:32 15.4 °C 14.3 °C 1015.9 hPa Calm   1.6 km/h 93% 0.0 mm 0 W/m2
03:37 15.4 °C 14.3 °C 1015.9 hPa Calm     93% 0.0 mm 0 W/m2
03:42 15.4 °C 14.3 °C 1015.9 hPa Calm     93% 0.0 mm 0 W/m2
03:47 15.4 °C 14.3 °C 1015.9 hPa Calm   1.6 km/h 93% 0.0 mm 0 W/m2
03:52 15.3 °C 14.3 °C 1015.9 hPa Calm     94% 0.0 mm 0 W/m2
03:57 15.3 °C 14.3 °C 1015.9 hPa Calm     94% 0.0 mm 0 W/m2
04:02 15.3 °C 14.3 °C 1015.9 hPa Calm     94% 0.0 mm 0 W/m2
04:07 15.3 °C 14.3 °C 1015.9 hPa Calm     94% 0.0 mm 0 W/m2
04:12 15.3 °C 14.3 °C 1015.9 hPa North 1.4 km/h 1.6 km/h 94% 0.0 mm 0 W/m2
04:17 15.3 °C 14.3 °C 1016.3 hPa Calm   3.2 km/h 94% 0.0 mm 0 W/m2
04:22 15.3 °C 14.3 °C 1016.3 hPa Calm   1.6 km/h 94% 0.0 mm 0 W/m2
04:27 15.3 °C 14.3 °C 1016.3 hPa Calm   3.2 km/h 94% 0.0 mm 0 W/m2
04:32 15.3 °C 14.3 °C 1016.3 hPa Calm   1.6 km/h 94% 0.0 mm 0 W/m2
04:37 15.3 °C 14.3 °C 1016.3 hPa Calm     94% 0.0 mm 0 W/m2
04:42 15.3 °C 14.3 °C 1016.3 hPa WSW 1.4 km/h 1.6 km/h 94% 0.0 mm 0 W/m2
04:47 15.3 °C 14.3 °C 1016.3 hPa West 1.4 km/h 1.6 km/h 94% 0.0 mm 0 W/m2
04:52 15.3 °C 14.3 °C 1016.3 hPa ENE 1.4 km/h 4.8 km/h 94% 0.0 mm 0 W/m2
04:57 15.3 °C 14.3 °C 1016.3 hPa ESE 1.4 km/h 3.2 km/h 94% 0.0 mm 0 W/m2
05:02 15.3 °C 14.3 °C 1016.3 hPa NNW 3.2 km/h 6.4 km/h 94% 0.0 mm 0 W/m2
05:07 15.3 °C 14.3 °C 1016.3 hPa Calm   1.6 km/h 94% 0.0 mm 0 W/m2
05:12 15.3 °C 14.3 °C 1016.3 hPa Calm   6.4 km/h 94% 0.0 mm 0 W/m2
05:17 15.3 °C 14.3 °C 1016.3 hPa NE 1.4 km/h 3.2 km/h 94% 0.0 mm 0 W/m2
05:22 15.3 °C 14.3 °C 1016.3 hPa Calm   4.8 km/h 94% 0.0 mm 0 W/m2
05:27 15.3 °C 14.3 °C 1016.3 hPa NE 1.4 km/h 6.4 km/h 94% 0.0 mm 0 W/m2
05:32 15.2 °C 14.2 °C 1016.3 hPa East 3.2 km/h 4.8 km/h 94% 0.0 mm 0 W/m2
05:37 15.2 °C 14.2 °C 1016.3 hPa NE 3.2 km/h 6.4 km/h 94% 0.0 mm 0 W/m2
05:42 15.2 °C 14.2 °C 1016.6 hPa NE 1.4 km/h 4.8 km/h 94% 0.0 mm 0 W/m2
05:48 15.2 °C 14.2 °C 1016.6 hPa East 1.4 km/h 4.8 km/h 94% 0.0 mm 0 W/m2
05:53 15.2 °C 14.2 °C 1016.6 hPa Calm   6.4 km/h 94% 0.0 mm 5 W/m2
05:58 15.2 °C 14.2 °C 1016.6 hPa NE 1.4 km/h 1.6 km/h 94% 0.0 mm 5 W/m2
06:03 15.2 °C 14.2 °C 1016.6 hPa Calm   3.2 km/h 94% 0.0 mm 7 W/m2
06:08 15.2 °C 14.2 °C 1016.6 hPa Calm     94% 0.0 mm 12 W/m2
06:13 15.2 °C 14.2 °C 1016.6 hPa Calm   1.6 km/h 94% 0.0 mm 18 W/m2
06:18 15.3 °C 14.3 °C 1016.6 hPa East 4.7 km/h 4.8 km/h 94% 0.0 mm 25 W/m2
06:23 15.3 °C 14.3 °C 1016.6 hPa NNW 1.4 km/h 4.8 km/h 94% 0.0 mm 18 W/m2
06:28 15.3 °C 14.3 °C 1016.6 hPa Calm   3.2 km/h 94% 0.0 mm 19 W/m2
06:33 15.3 °C 14.3 °C 1016.6 hPa ENE 6.4 km/h 8 km/h 94% 0.0 mm 28 W/m2
06:38 15.3 °C 14.3 °C 1016.9 hPa ENE 1.4 km/h 4.8 km/h 94% 0.0 mm 40 W/m2
06:43 15.4 °C 14.4 °C 1016.6 hPa Calm   8 km/h 94% 0.0 mm 30 W/m2
06:48 15.4 °C 14.4 °C 1016.9 hPa NNW 1.4 km/h 3.2 km/h 94% 0.0 mm 21 W/m2
06:53 15.4 °C 14.4 °C 1016.9 hPa NW 3.2 km/h 8 km/h 94% 0.0 mm 21 W/m2
06:58 15.4 °C 14.4 °C 1016.9 hPa NNW 1.4 km/h 3.2 km/h 94% 0.0 mm 23 W/m2
07:03 15.4 °C 14.3 °C 1016.9 hPa ENE 4.7 km/h 4.8 km/h 93% 0.0 mm 51 W/m2
07:08 15.5 °C 14.5 °C 1016.9 hPa Calm   1.6 km/h 94% 0.0 mm 63 W/m2
07:13 15.6 °C 14.6 °C 1016.9 hPa Calm   1.6 km/h 94% 0.0 mm 83 W/m2
07:18 15.6 °C 14.5 °C 1016.9 hPa NNW 3.2 km/h 4.8 km/h 93% 0.0 mm 76 W/m2
07:23 15.7 °C 14.6 °C 1016.9 hPa NE 1.4 km/h 3.2 km/h 93% 0.0 mm 67 W/m2
07:28 15.7 °C 14.6 °C 1016.9 hPa WNW 3.2 km/h 4.8 km/h 93% 0.0 mm 54 W/m2
07:33 15.7 °C 14.6 °C 1016.9 hPa Calm   4.8 km/h 93% 0.0 mm 54 W/m2
07:38 15.8 °C 14.7 °C 1016.9 hPa North 1.4 km/h 1.6 km/h 93% 0.0 mm 58 W/m2
07:43 15.8 °C 14.7 °C 1016.9 hPa East 4.7 km/h 4.8 km/h 93% 0.0 mm 69 W/m2
07:48 15.8 °C 14.7 °C 1016.9 hPa NE 4.7 km/h 4.8 km/h 93% 0.0 mm 76 W/m2
07:53 15.9 °C 14.8 °C 1016.9 hPa NNW 1.4 km/h 1.6 km/h 93% 0.0 mm 84 W/m2
07:58 15.9 °C 14.6 °C 1016.9 hPa NNE 1.4 km/h 3.2 km/h 92% 0.0 mm 79 W/m2
08:03 16 °C 14.7 °C 1016.9 hPa NNW 3.2 km/h 6.4 km/h 92% 0.0 mm 69 W/m2
08:08 16.1 °C 14.8 °C 1016.9 hPa NNW 1.4 km/h 4.8 km/h 92% 0.0 mm 109 W/m2
08:13 16.2 °C 14.9 °C 1016.9 hPa East 3.2 km/h 4.8 km/h 92% 0.0 mm 125 W/m2
08:18 16.3 °C 15 °C 1016.9 hPa SE 1.4 km/h 4.8 km/h 92% 0.0 mm 132 W/m2
08:23 16.4 °C 15.1 °C 1017.3 hPa ENE 1.4 km/h 8 km/h 92% 0.0 mm 121 W/m2
08:28 16.4 °C 15.1 °C 1016.9 hPa NW 1.4 km/h 8 km/h 92% 0.0 mm 105 W/m2
08:33 16.6 °C 15.1 °C 1017.3 hPa NNE 1.4 km/h 6.4 km/h 91% 0.0 mm 128 W/m2
08:38 16.6 °C 15 °C 1017.3 hPa ENE 4.7 km/h 8 km/h 90% 0.0 mm 130 W/m2
08:43 16.7 °C 15.1 °C 1017.3 hPa East 1.4 km/h 4.8 km/h 90% 0.0 mm 120 W/m2
08:48 16.7 °C 15.1 °C 1017.3 hPa East 1.4 km/h 3.2 km/h 90% 0.0 mm 132 W/m2
08:53 16.8 °C 15.1 °C 1017.3 hPa Calm   4.8 km/h 90% 0.0 mm 104 W/m2
08:58 16.8 °C 15.1 °C 1017.3 hPa Calm   3.2 km/h 90% 0.0 mm 81 W/m2
09:03 16.9 °C 15.1 °C 1017.3 hPa NE 3.2 km/h 3.2 km/h 89% 0.0 mm 91 W/m2
09:08 16.9 °C 15.1 °C 1017.3 hPa Calm   3.2 km/h 89% 0.0 mm 100 W/m2
09:13 16.9 °C 15.1 °C 1017.3 hPa NNW 1.4 km/h 3.2 km/h 89% 0.0 mm 91 W/m2
09:18 17 °C 15.2 °C 1017.3 hPa Calm   3.2 km/h 89% 0.0 mm 107 W/m2
09:23 17.1 °C 15.3 °C 1017.3 hPa Calm   1.6 km/h 89% 0.0 mm 93 W/m2
09:28 17 °C 15 °C 1017.3 hPa Calm   8 km/h 88% 0.0 mm 121 W/m2
09:33 17.1 °C 15.3 °C 1017.6 hPa Calm   3.2 km/h 89% 0.0 mm 121 W/m2
09:38 17.1 °C 15.1 °C 1017.6 hPa East 3.2 km/h 8 km/h 88% 0.0 mm 123 W/m2
09:43 17.1 °C 15.1 °C 1017.6 hPa Calm   6.4 km/h 88% 0.0 mm 153 W/m2
09:48 17.1 °C 15.1 °C 1017.6 hPa East 1.4 km/h 1.6 km/h 88% 0.0 mm 142 W/m2
09:53 17.2 °C 15.2 °C 1017.6 hPa Calm     88% 0.0 mm 127 W/m2
09:58 17.2 °C 15.2 °C 1017.6 hPa NE 1.4 km/h 3.2 km/h 88% 0.0 mm 141 W/m2
10:03 17.3 °C 15.3 °C 1017.6 hPa Calm   1.6 km/h 88% 0.0 mm 144 W/m2
10:08 17.3 °C 15.1 °C 1018.0 hPa Calm   6.4 km/h 87% 0.0 mm 158 W/m2
10:13 17.4 °C 15.2 °C 1018.0 hPa NE 3.2 km/h 4.8 km/h 87% 0.0 mm 156 W/m2
10:18 17.4 °C 15.2 °C 1018.0 hPa NE 1.4 km/h 1.6 km/h 87% 0.0 mm 155 W/m2
10:23 17.4 °C 15.2 °C 1018.0 hPa ENE 3.2 km/h 6.4 km/h 87% 0.0 mm 144 W/m2
10:28 17.5 °C 15.3 °C 1018.0 hPa East 1.4 km/h 1.6 km/h 87% 0.0 mm 190 W/m2
10:33 17.6 °C 15.4 °C 1018.0 hPa North 1.4 km/h 6.4 km/h 87% 0.0 mm 192 W/m2
10:38 17.7 °C 15.5 °C 1018.0 hPa Calm   6.4 km/h 87% 0.0 mm 132 W/m2
10:43 17.7 °C 15.3 °C 1018.0 hPa NNE 1.4 km/h 3.2 km/h 86% 0.0 mm 93 W/m2
10:48 17.7 °C 15.3 °C 1018.0 hPa Calm   4.8 km/h 86% 0.0 mm 86 W/m2
10:54 17.7 °C 15.1 °C 1018.0 hPa East 1.4 km/h 6.4 km/h 85% 0.0 mm 79 W/m2
10:59 17.7 °C 15.1 °C 1018.0 hPa ENE 1.4 km/h 4.8 km/h 85% 0.0 mm 127 W/m2
11:04 17.7 °C 15.1 °C 1018.0 hPa Calm   6.4 km/h 85% 0.0 mm 163 W/m2
11:09 17.8 °C 15.4 °C 1018.0 hPa East 3.2 km/h 3.2 km/h 86% 0.0 mm 185 W/m2
11:14 17.9 °C 15.3 °C 1018.0 hPa Calm   3.2 km/h 85% 0.0 mm 156 W/m2
11:19 18 °C 15.4 °C 1018.0 hPa NNW 3.2 km/h 3.2 km/h 85% 0.0 mm 165 W/m2
11:24 18 °C 15.4 °C 1018.0 hPa Calm   4.8 km/h 85% 0.0 mm 207 W/m2
11:29 18.1 °C 15.4 °C 1018.0 hPa Calm   4.8 km/h 84% 0.0 mm 209 W/m2
11:34 18.1 °C 15.4 °C 1018.0 hPa East 3.2 km/h 6.4 km/h 84% 0.0 mm 207 W/m2
11:39 18.2 °C 15.6 °C 1018.0 hPa ENE 3.2 km/h 3.2 km/h 85% 0.0 mm 204 W/m2
11:44 18.2 °C 15.3 °C 1018.0 hPa Calm   4.8 km/h 83% 0.0 mm 220 W/m2
11:49 18.3 °C 15.4 °C 1017.6 hPa NE 3.2 km/h 4.8 km/h 83% 0.0 mm 227 W/m2
11:54 18.3 °C 15.4 °C 1018.0 hPa Calm   4.8 km/h 83% 0.0 mm 258 W/m2
11:59 18.6 °C 15.5 °C 1017.6 hPa East 1.4 km/h 3.2 km/h 82% 0.0 mm 297 W/m2
12:04 18.7 °C 15.6 °C 1017.6 hPa NW 1.4 km/h 3.2 km/h 82% 0.0 mm 457 W/m2
12:09 19.1 °C 16.3 °C 1017.6 hPa NNE 3.2 km/h 4.8 km/h 84% 0.0 mm 1137 W/m2
12:14 19.4 °C 15.9 °C 1017.6 hPa Calm     80% 0.0 mm 970 W/m2
12:19 19.9 °C 16.3 °C 1017.6 hPa NW 1.4 km/h 4.8 km/h 80% 0.0 mm 969 W/m2
12:24 20.2 °C 16.2 °C 1017.6 hPa NNW 1.4 km/h 6.4 km/h 78% 0.0 mm 960 W/m2
12:29 20.4 °C 16.2 °C 1017.3 hPa East 3.2 km/h 4.8 km/h 77% 0.0 mm 1005 W/m2
12:34 20.9 °C 16.3 °C 1017.3 hPa SE 3.2 km/h 6.4 km/h 75% 0.0 mm 1085 W/m2
12:39 21.2 °C 16.2 °C 1017.3 hPa NE 1.4 km/h 4.8 km/h 73% 0.0 mm 297 W/m2
12:44 21 °C 15.8 °C 1017.3 hPa Calm   4.8 km/h 72% 0.0 mm 446 W/m2
12:49 20.8 °C 15.6 °C 1017.3 hPa ENE 4.7 km/h 4.8 km/h 72% 0.0 mm 267 W/m2
12:54 20.5 °C 15.9 °C 1017.3 hPa Calm   1.6 km/h 75% 0.0 mm 267 W/m2
12:59 20.4 °C 15.4 °C 1017.3 hPa ESE 1.4 km/h 4.8 km/h 73% 0.0 mm 348 W/m2
13:04 20.6 °C 16 °C 1017.3 hPa ENE 4.7 km/h 4.8 km/h 75% 0.0 mm 1150 W/m2
13:09 21.1 °C 16.1 °C 1017.6 hPa ENE 3.2 km/h 9.7 km/h 73% 0.0 mm 452 W/m2
13:14 21.2 °C 15.9 °C 1017.6 hPa ENE 3.2 km/h 4.8 km/h 72% 0.0 mm 411 W/m2
13:19 21.3 °C 16 °C 1017.3 hPa East 6.4 km/h 9.7 km/h 72% 0.0 mm 540 W/m2
13:24 21.4 °C 15.7 °C 1017.3 hPa SE 4.7 km/h 6.4 km/h 70% 0.0 mm 1136 W/m2
13:29 21.6 °C 15.7 °C 1017.3 hPa NE 6.4 km/h 6.4 km/h 69% 0.0 mm 1072 W/m2
13:34 21.9 °C 15.7 °C 1017.3 hPa Calm   6.4 km/h 68% 0.0 mm 1181 W/m2
13:39 21.9 °C 15.5 °C 1017.3 hPa East 1.4 km/h 6.4 km/h 67% 0.0 mm 1181 W/m2
13:44 22.1 °C 15.2 °C 1017.6 hPa SE 3.2 km/h 4.8 km/h 65% 0.0 mm 838 W/m2
13:49 22.1 °C 15.7 °C 1017.3 hPa West 9.7 km/h 9.7 km/h 67% 0.0 mm 1183 W/m2
13:54 22.1 °C 15.7 °C 1017.3 hPa NE 3.2 km/h 3.2 km/h 67% 0.0 mm 1160 W/m2
13:59 22.3 °C 15.9 °C 1017.3 hPa South 3.2 km/h 9.7 km/h 67% 0.0 mm 1083 W/m2
14:04 22.6 °C 16.2 °C 1017.3 hPa Calm   1.6 km/h 67% 0.0 mm 1136 W/m2
14:09 22.9 °C 16 °C 1017.3 hPa ESE 6.4 km/h 9.7 km/h 65% 0.0 mm 1065 W/m2
14:14 23.2 °C 16 °C 1016.9 hPa Calm   8 km/h 64% 0.0 mm 1037 W/m2
14:19 23.2 °C 15.3 °C 1016.9 hPa NNW 1.4 km/h 1.6 km/h 61% 0.0 mm 237 W/m2
14:24 23.1 °C 15.4 °C 1016.9 hPa ESE 3.2 km/h 6.4 km/h 62% 0.0 mm 211 W/m2
14:29 22.8 °C 14.9 °C 1016.9 hPa ENE 7.9 km/h 8 km/h 61% 0.0 mm 234 W/m2
14:34 22.8 °C 14.9 °C 1017.3 hPa SE 1.4 km/h 4.8 km/h 61% 0.0 mm 214 W/m2
14:39 22.7 °C 15.3 °C 1016.9 hPa SE 8 km/h 8 km/h 63% 0.0 mm 327 W/m2
14:44 22.7 °C 15.5 °C 1016.9 hPa NW 3.2 km/h 6.4 km/h 64% 0.0 mm 320 W/m2
14:49 22.6 °C 15.4 °C 1016.9 hPa NW 4.7 km/h 8 km/h 64% 0.0 mm 1127 W/m2
14:54 22.8 °C 15.1 °C 1016.9 hPa North 6.4 km/h 16.1 km/h 62% 0.0 mm 367 W/m2
14:59 22.7 °C 14.8 °C 1016.9 hPa WNW 1.4 km/h 8 km/h 61% 0.0 mm 694 W/m2
15:04 22.6 °C 15.2 °C 1016.9 hPa East 3.2 km/h 16.1 km/h 63% 0.0 mm 364 W/m2
15:09 22.7 °C 15 °C 1016.9 hPa WNW 4.7 km/h 6.4 km/h 62% 0.0 mm 267 W/m2
15:14 22.6 °C 15.2 °C 1016.9 hPa NNW 1.4 km/h 9.7 km/h 63% 0.0 mm 330 W/m2
15:19 22.7 °C 15.5 °C 1016.9 hPa ENE 3.2 km/h 6.4 km/h 64% 0.0 mm 406 W/m2
15:24 23.1 °C 15.4 °C 1016.9 hPa West 3.2 km/h 8 km/h 62% 0.0 mm 406 W/m2
15:29 23 °C 15.1 °C 1016.9 hPa SSW 1.4 km/h 6.4 km/h 61% 0.0 mm 446 W/m2
15:34 22.9 °C 15.2 °C 1016.9 hPa ENE 4.7 km/h 4.8 km/h 62% 0.0 mm 480 W/m2
15:39 23 °C 15.1 °C 1016.6 hPa Calm   6.4 km/h 61% 0.0 mm 1085 W/m2
15:44 23.4 °C 15.4 °C 1016.6 hPa NNW 6.4 km/h 9.7 km/h 61% 0.0 mm 977 W/m2
15:49 23.6 °C 15.9 °C 1016.6 hPa NNE 4.7 km/h 4.8 km/h 62% 0.0 mm 710 W/m2
15:54 23.6 °C 15.4 °C 1016.6 hPa ENE 3.2 km/h 8 km/h 60% 0.0 mm 294 W/m2
15:59 23.4 °C 15.2 °C 1016.6 hPa Calm   6.4 km/h 60% 0.0 mm 366 W/m2
16:04 23.3 °C 15.4 °C 1016.6 hPa WNW 6.4 km/h 11.3 km/h 61% 0.0 mm 229 W/m2
16:09 23.1 °C 15.2 °C 1016.6 hPa SSW 3.2 km/h 6.4 km/h 61% 0.0 mm 216 W/m2
16:14 22.9 °C 15 °C 1016.6 hPa North 1.4 km/h 11.3 km/h 61% 0.0 mm 221 W/m2
16:19 22.9 °C 15 °C 1016.6 hPa ESE 1.4 km/h 6.4 km/h 61% 0.0 mm 255 W/m2
16:24 23 °C 15.1 °C 1016.6 hPa East 1.4 km/h 4.8 km/h 61% 0.0 mm 197 W/m2
16:29 23 °C 14.8 °C 1016.6 hPa ENE 1.4 km/h 3.2 km/h 60% 0.0 mm 176 W/m2
16:34 23 °C 15.3 °C 1016.6 hPa Calm   4.8 km/h 62% 0.0 mm 141 W/m2
16:39 22.8 °C 14.9 °C 1016.6 hPa NW 3.2 km/h 6.4 km/h 61% 0.0 mm 132 W/m2
16:44 22.8 °C 15.1 °C 1016.3 hPa ENE 1.4 km/h 6.4 km/h 62% 0.0 mm 149 W/m2
16:49 22.7 °C 15.3 °C 1016.3 hPa NE 3.2 km/h 4.8 km/h 63% 0.0 mm 172 W/m2
16:54 22.7 °C 15.3 °C 1016.3 hPa North 1.4 km/h 6.4 km/h 63% 0.0 mm 125 W/m2
16:59 22.7 °C 15.3 °C 1016.3 hPa NW 3.2 km/h 6.4 km/h 63% 0.0 mm 691 W/m2
17:04 23.1 °C 15.4 °C 1016.3 hPa Calm   4.8 km/h 62% 0.0 mm 693 W/m2
17:09 23.2 °C 15 °C 1016.3 hPa East 1.4 km/h 4.8 km/h 60% 0.0 mm 148 W/m2
17:14 23.2 °C 15.5 °C 1016.3 hPa WNW 3.2 km/h 4.8 km/h 62% 0.0 mm 162 W/m2
17:19 23.3 °C 15.1 °C 1016.3 hPa Calm     60% 0.0 mm 687 W/m2
17:24 23.7 °C 14.9 °C 1016.3 hPa NW 3.2 km/h 4.8 km/h 58% 0.0 mm 148 W/m2
17:29 23.7 °C 15.2 °C 1016.3 hPa ESE 3.2 km/h 6.4 km/h 59% 0.0 mm 624 W/m2
17:34 23.8 °C 15.8 °C 1016.3 hPa NW 3.2 km/h 8 km/h 61% 0.0 mm 629 W/m2
17:39 24.2 °C 15.7 °C 1016.3 hPa ENE 4.7 km/h 6.4 km/h 59% 0.0 mm 564 W/m2
17:44 24.3 °C 15.5 °C 1016.3 hPa Calm   4.8 km/h 58% 0.0 mm 499 W/m2
17:49 24.2 °C 15.4 °C 1015.9 hPa NW 6.4 km/h 8 km/h 58% 0.0 mm 118 W/m2
17:54 23.8 °C 15.3 °C 1015.9 hPa West 6.4 km/h 9.7 km/h 59% 0.0 mm 517 W/m2
17:59 23.6 °C 15.1 °C 1015.9 hPa West 6.4 km/h 6.4 km/h 59% 0.0 mm 118 W/m2
18:04 23.6 °C 15.1 °C 1015.9 hPa WNW 6.4 km/h 6.4 km/h 59% 0.0 mm 584 W/m2
18:09 23.7 °C 14.9 °C 1015.9 hPa NW 1.4 km/h 4.8 km/h 58% 0.0 mm 153 W/m2
18:14 23.8 °C 15.3 °C 1015.6 hPa NNW 3.2 km/h 3.2 km/h 59% 0.0 mm 522 W/m2
18:19 24.1 °C 15 °C 1015.6 hPa WNW 6.4 km/h 12.9 km/h 57% 0.0 mm 482 W/m2
18:24 24.1 °C 14.8 °C 1015.6 hPa NNW 6.4 km/h 12.9 km/h 56% 0.0 mm 443 W/m2
18:30 23.9 °C 14.6 °C 1015.6 hPa WNW 4.7 km/h 9.7 km/h 56% 0.0 mm 323 W/m2
18:35 23.6 °C 14.6 °C 1015.9 hPa WNW 4.7 km/h 12.9 km/h 57% 0.0 mm 67 W/m2
18:40 23.3 °C 15.1 °C 1015.9 hPa WSW 4.7 km/h 6.4 km/h 60% 0.0 mm 56 W/m2
18:45 22.9 °C 15 °C 1015.9 hPa NW 3.2 km/h 8 km/h 61% 0.0 mm 56 W/m2
18:50 22.7 °C 15 °C 1015.9 hPa West 4.7 km/h 6.4 km/h 62% 0.0 mm 60 W/m2
18:55 22.3 °C 14.9 °C 1016.3 hPa WSW 6.4 km/h 9.7 km/h 63% 0.0 mm 62 W/m2
19:00 22.1 °C 15.4 °C 1016.3 hPa WNW 6.4 km/h 6.4 km/h 66% 0.0 mm 76 W/m2
19:05 21.9 °C 15.3 °C 1016.3 hPa WNW 4.7 km/h 6.4 km/h 66% 0.0 mm 81 W/m2
19:10 21.8 °C 14.9 °C 1016.3 hPa West 4.7 km/h 9.7 km/h 65% 0.0 mm 98 W/m2
19:15 21.8 °C 14.9 °C 1016.3 hPa WNW 7.9 km/h 12.9 km/h 65% 0.0 mm 95 W/m2
19:20 21.8 °C 14.9 °C 1016.3 hPa West 9.7 km/h 14.5 km/h 65% 0.0 mm 98 W/m2
19:25 21.7 °C 15.5 °C 1016.3 hPa West 6.4 km/h 11.3 km/h 68% 0.0 mm 105 W/m2
19:30 21.5 °C 15.6 °C 1016.3 hPa West 6.4 km/h 12.9 km/h 69% 0.0 mm 107 W/m2
19:35 21.4 °C 15.7 °C 1016.3 hPa West 9.7 km/h 9.7 km/h 70% 0.0 mm 111 W/m2
19:40 21.4 °C 15.7 °C 1016.3 hPa NW 1.4 km/h 12.9 km/h 70% 0.0 mm 113 W/m2
19:45 21.4 °C 15.7 °C 1016.3 hPa WNW 6.4 km/h 11.3 km/h 70% 0.0 mm 105 W/m2
19:50 21.4 °C 15.9 °C 1016.3 hPa West 4.7 km/h 9.7 km/h 71% 0.0 mm 98 W/m2
19:55 21.4 °C 15.9 °C 1016.3 hPa WNW 6.4 km/h 9.7 km/h 71% 0.0 mm 102 W/m2
20:00 21.3 °C 15.6 °C 1016.3 hPa WNW 4.7 km/h 16.1 km/h 70% 0.0 mm 109 W/m2
20:05 21.3 °C 15.6 °C 1016.3 hPa WNW 7.9 km/h 12.9 km/h 70% 0.0 mm 109 W/m2
20:10 21.3 °C 15.8 °C 1016.3 hPa WNW 4.7 km/h 16.1 km/h 71% 0.0 mm 104 W/m2
20:15 21.2 °C 15.7 °C 1016.3 hPa NW 3.2 km/h 12.9 km/h 71% 0.0 mm 113 W/m2
20:20 21.3 °C 16 °C 1016.3 hPa WNW 4.7 km/h 14.5 km/h 72% 0.0 mm 91 W/m2
20:25 21.2 °C 15.9 °C 1016.3 hPa West 9.7 km/h 16.1 km/h 72% 0.0 mm 77 W/m2
20:30 21.1 °C 16.1 °C 1016.6 hPa WNW 3.2 km/h 8 km/h 73% 0.0 mm 70 W/m2
20:35 20.9 °C 16.1 °C 1016.3 hPa WNW 6.4 km/h 14.5 km/h 74% 0.0 mm 62 W/m2
20:40 20.8 °C 16 °C 1016.3 hPa NW 3.2 km/h 11.3 km/h 74% 0.0 mm 44 W/m2
20:45 20.7 °C 15.9 °C 1016.3 hPa West 11.1 km/h 14.5 km/h 74% 0.0 mm 42 W/m2
20:50 20.6 °C 16 °C 1016.3 hPa WNW 6.4 km/h 9.7 km/h 75% 0.0 mm 44 W/m2
20:55 20.5 °C 15.9 °C 1016.3 hPa West 4.7 km/h 16.1 km/h 75% 0.0 mm 47 W/m2
21:00 20.5 °C 15.9 °C 1016.3 hPa West 3.2 km/h 6.4 km/h 75% 0.0 mm 44 W/m2
21:05 20.5 °C 15.9 °C 1016.3 hPa West 3.2 km/h 16.1 km/h 75% 0.0 mm 40 W/m2
21:10 20.6 °C 16 °C 1016.3 hPa WNW 3.2 km/h 6.4 km/h 75% 0.0 mm 37 W/m2
21:15 20.4 °C 15.8 °C 1016.3 hPa West 4.7 km/h 14.5 km/h 75% 0.0 mm 32 W/m2
21:20 20.3 °C 15.9 °C 1016.3 hPa WNW 11.1 km/h 11.3 km/h 76% 0.0 mm 28 W/m2
21:25 20.2 °C 15.8 °C 1016.3 hPa WSW 6.4 km/h   76% 0.0 mm 23 W/m2
21:30 20.1 °C 15.9 °C 1016.3 hPa North 6.4 km/h 6.4 km/h 77% 0.0 mm 14 W/m2
21:35 20 °C 15.8 °C 1016.3 hPa NW 1.4 km/h 6.4 km/h 77% 0.0 mm 9 W/m2
21:40 19.9 °C 15.7 °C 1016.3 hPa North 3.2 km/h 11.3 km/h 77% 0.0 mm 5 W/m2
21:45 19.8 °C 15.7 °C 1016.3 hPa West 6.4 km/h 17.7 km/h 77% 0.0 mm 5 W/m2
21:50 19.7 °C 15.6 °C 1016.6 hPa NNW 3.2 km/h 8 km/h 77% 0.0 mm 0 W/m2
21:55 19.6 °C 15.5 °C 1016.6 hPa WNW 6.4 km/h 17.7 km/h 77% 0.0 mm 0 W/m2
22:00 19.5 °C 15.4 °C 1016.6 hPa West 3.2 km/h 6.4 km/h 77% 0.0 mm 0 W/m2
22:05 19.4 °C 15.5 °C 1016.6 hPa West 9.7 km/h 16.1 km/h 78% 0.0 mm 0 W/m2
22:10 19.2 °C 15.3 °C 1016.6 hPa West 4.7 km/h 11.3 km/h 78% 0.0 mm 0 W/m2
22:15 19.1 °C 15.2 °C 1016.6 hPa NW 3.2 km/h 16.1 km/h 78% 0.0 mm 0 W/m2
22:20 19.1 °C 15.2 °C 1016.9 hPa West 3.2 km/h 6.4 km/h 78% 0.0 mm 0 W/m2
22:26 18.9 °C 15.2 °C 1016.9 hPa West 3.2 km/h 6.4 km/h 79% 0.0 mm 0 W/m2
22:31 18.8 °C 15.1 °C 1016.9 hPa West 3.2 km/h 8 km/h 79% 0.0 mm 0 W/m2
22:36 18.8 °C 15.1 °C 1016.9 hPa WNW 3.2 km/h 8 km/h 79% 0.0 mm 0 W/m2
22:41 18.7 °C 14.8 °C 1016.9 hPa West 4.7 km/h 12.9 km/h 78% 0.0 mm 0 W/m2
22:46 18.6 °C 14.7 °C 1016.9 hPa WNW 6.4 km/h 6.4 km/h 78% 0.0 mm 0 W/m2
22:51 18.5 °C 14.6 °C 1016.9 hPa WNW 3.2 km/h 6.4 km/h 78% 0.0 mm 0 W/m2
22:56 18.4 °C 14.5 °C 1016.6 hPa Calm   6.4 km/h 78% 0.0 mm 0 W/m2
23:01 18.3 °C 14.6 °C 1016.9 hPa Calm   3.2 km/h 79% 0.0 mm 0 W/m2
23:06 18.3 °C 14.6 °C 1016.9 hPa ENE 1.4 km/h 4.8 km/h 79% 0.0 mm 0 W/m2
23:11 18.2 °C 14.5 °C 1016.9 hPa NNE 1.4 km/h 3.2 km/h 79% 0.0 mm 0 W/m2
23:16 18.1 °C 14.6 °C 1017.3 hPa WNW 1.4 km/h 6.4 km/h 80% 0.0 mm 0 W/m2
23:21 18 °C 14.5 °C 1017.3 hPa WNW 4.7 km/h 4.8 km/h 80% 0.0 mm 0 W/m2
23:26 17.9 °C 14.4 °C 1017.3 hPa NW 3.2 km/h 8 km/h 80% 0.0 mm 0 W/m2
23:31 17.8 °C 14.5 °C 1017.3 hPa NW 1.4 km/h 4.8 km/h 81% 0.0 mm 0 W/m2
23:36 17.7 °C 14.4 °C 1017.3 hPa West 1.4 km/h 6.4 km/h 81% 0.0 mm 0 W/m2
23:41 17.5 °C 14.2 °C 1017.6 hPa West 1.4 km/h 4.8 km/h 81% 0.0 mm 0 W/m2
23:46 17.4 °C 14.1 °C 1017.6 hPa Calm   3.2 km/h 81% 0.0 mm 0 W/m2
23:51 17.3 °C 14 °C 1018.0 hPa ENE 1.4 km/h 1.6 km/h 81% 0.0 mm 0 W/m2
23:56 17.2 °C 13.9 °C 1018.0 hPa North 1.4 km/h 3.2 km/h 81% 0.0 mm 0 W/m2
Juneau County Weather
Compliments of Weather Underground - 4 mb